Location: Avully
(45.9633°N, 6.0228°E)
Time: 05:38:56
(UTC+00:00)

CZ-2C R/B - Pass Details

Date: 23 May 2024
Orbit: 665 x 780 km, 98.4° (Epoch: 19 June)

Event Time Altitude Azimuth Distance (km) Brightness Sun altitude
Rises 03:11:16 0° 15° (NNE) 3,134 6.7 -7.0°
Reaches altitude 10° 03:13:35 10° 17° (NNE) 2,191 5.8 -6.7°
Maximum altitude 03:18:23 76° 102° (ESE) 717 2.5 -6.1°
Drops below altitude 10° 03:23:00 10° 190° (S) 2,112 4.4 -5.5°
Sets 03:25:12 0° 191° (SSW) 3,011 5.1 -5.2°
